[Date Prev][Date Next][Thread Prev][Thread Next] - [Date Index][Thread Index][Author Index]
2 Line ISS Keps 10-30
- Subject: [sarex] 2 Line ISS Keps 10-30
- From: "Dave Larsen PhD" <doc@xxxxxxxxxxx>
- Date: Tue, 30 Oct 2001 03:20:40 -0800
ISS
1 25544U 98067A 01303.12222222 .00079457 00000-0 10010-2 0 6669
2 25544 51.6397 130.0910 0008795 263.9255 249.9963 15.58877953168137
----
Via the sarex mailing list at AMSAT.ORG courtesy of AMSAT-NA.
To unsubscribe, send "unsubscribe sarex" to Majordomo@amsat.org
AMSAT Home